[[{"header":{"parameterUnit":"m.s-1","parameterCategory":1,"la1":30.2991,"la2":30.254,"lo1":-89.0895,"lo2":-89.0444,"dy":0.0017,"dx":0.0017,"nx":28,"ny":28,"refTime":"2024-04-11T09:00:00:Z","depth":0,"parameterNumber":2,"parameterNumberName":"U-component_of_WINDS"},"data":[0,0,0,0,0,0,0,0,0,0,0,0,0,0,0,0,0,0,0,0,0,0,0,0,0,0,0,0,0,0,0,0,0,0,0,0,0,0,0,0,0,0,0,0,0,0,0,0,0,0,0,0,0,0,0,0,0,0,3.8119,3.812,0,3.8213,3.8214,3.8215,3.8152,3.8149,3.8147,3.8144,3.8241,3.8246,3.8251,0,0,0,0,0,0,0,0,0,0,0,0,0,3.7888,3.7892,3.8119,3.812,3.8121,3.8213,3.8214,3.8215,3.8153,3.8149,3.8146,3.8143,3.8239,3.8245,3.8252,0,0,0,0,0,0,0,0,0,0,0,0,0,3.7985,3.7894,3.8119,3.8101,3.8101,3.8212,3.8214,3.8215,3.8154,3.8149,3.8145,3.8141,3.8237,3.8245,3.8252,3.8387,0,0,3.8277,3.828,0,0,0,0,0,0,0,0,3.798,3.7994,3.8103,3.8103,3.8102,3.8166,3.8168,3.8273,3.8155,3.8134,3.8144,3.8139,3.822,3.8229,3.8256,3.8392,3.8396,3.8277,3.8282,3.8285,3.8288,0,0,0,0,0,0,0,3.7973,3.799,3.8156,3.8104,3.8104,3.8089,3.8098,3.8187,3.82,3.8135,3.8131,3.8143,3.8219,3.8248,3.8257,3.8397,3.8277,3.8284,3.8289,3.8292,3.8649,3.8653,0,0,0,0,0,0,3.7968,3.7984,3.8153,3.8159,3.8029,3.8097,3.8107,3.815,3.8198,3.8202,3.8146,3.8139,3.8237,3.8248,3.8261,3.8422,3.8285,3.8293,3.8297,3.8644,3.865,3.8655,0,0,0,0,0,0,3.7963,3.7983,3.8149,3.8071,3.809,3.8105,3.8154,3.8154,3.8184,3.8207,3.8209,3.8174,3.8234,3.825,3.8356,3.8424,3.8296,3.8303,3.8638,3.8646,3.8652,3.8744,0,0,0,0,0,0,3.7957,3.7982,3.8033,3.8072,3.8095,3.8243,3.8158,3.8159,3.8197,3.8189,3.8233,3.8237,3.8232,3.8345,3.8364,3.8433,3.831,3.8632,3.8642,3.865,3.8735,3.8754,3.877,0,0,0,0,0,3.7949,3.8055,3.8036,3.8057,3.8159,3.8247,3.826,3.8252,3.8203,3.8255,3.827,3.8235,3.8414,3.8356,3.8377,3.8449,3.8628,3.8639,3.8649,3.8728,3.875,3.8769,0,0,0,0,0,0,3.8024,3.806,3.8039,3.8161,3.8202,3.8236,3.8301,3.8276,3.8331,3.8321,3.8309,3.832,3.8432,3.8451,3.8386,3.8582,3.8513,3.8529,3.8565,3.8587,3.8604,3.8597,3.8316,0,0,0,0,0,3.8055,3.8123,3.8151,3.8256,3.8278,3.8286,3.8324,3.8315,3.8356,3.8373,3.8395,3.8437,3.8502,3.8546,3.8607,3.8738,3.8747,3.8798,3.8815,3.8829,3.8843,3.8914,3.8937,3.869,3.869,3.869,0,0,3.8119,3.8147,3.8191,3.8272,3.8302,3.8374,3.8301,3.8379,3.8432,3.8385,3.8486,3.8505,3.8551,3.867,3.8724,3.869,3.8913,3.8843,3.8854,3.886,3.8927,3.895,3.8971,3.8697,3.8696,3.8695,0,0,3.8273,3.8301,3.8392,3.8424,3.847,3.8475,3.8497,3.8536,3.8546,3.8648,3.8614,3.8677,3.879,3.8824,3.8857,3.9025,3.8995,3.9045,3.9134,3.9204,3.9223,3.924,3.93,3.9322,3.9058,3.9059,3.9059,0,3.8347,3.8453,3.8442,3.8523,3.856,3.852,3.8613,3.8644,3.8709,3.8735,3.8696,3.8837,3.8865,3.8993,3.9034,3.9061,3.9086,3.904,3.9221,3.9238,3.9254,3.9311,3.9334,3.9064,3.9064,3.9063,3.9063,0,3.8542,3.8616,3.8684,3.8747,3.8792,3.8878,3.8881,3.8928,3.8914,3.8924,3.9029,3.9061,3.9129,3.9158,3.9146,3.9284,3.9262,3.9222,3.9152,3.9284,3.9337,3.9359,3.9073,3.9071,3.9069,3.9067,0,0,3.8745,3.8801,3.8826,3.8855,3.8904,3.8961,3.9046,3.9112,3.9152,3.9198,3.927,3.9367,3.9331,3.9367,3.9359,3.942,3.9551,3.9373,3.9374,3.9405,3.9706,3.9735,3.976,3.9532,3.9536,3.954,3.9702,0,3.8901,3.9049,3.9042,3.9181,3.925,3.9213,3.9287,3.9326,3.9337,3.9397,3.941,3.9479,3.9426,3.9448,3.9507,3.9523,3.9611,3.9511,3.9599,3.9602,3.9588,3.9788,3.9819,3.997,3.9723,3.9726,3.9729,0,3.9103,3.9156,3.9302,3.9341,3.9369,3.9436,3.9496,3.9554,3.9597,3.9601,3.9643,3.9625,3.9711,3.964,3.9759,3.9691,3.9727,3.974,3.9746,3.9754,3.9673,3.9801,4.0018,4.0041,3.9761,3.9759,3.9757,0,3.9237,3.9345,3.9446,3.9471,3.9519,3.9567,3.9589,3.9628,3.9668,3.9721,3.9747,3.981,3.9844,3.9893,3.9893,3.984,4.0014,3.9942,4.002,4.002,4.0058,4.0055,4.0284,4.0082,4.0081,4.0081,4.008,0,3.9412,3.9503,3.9506,3.9568,3.9669,3.9661,3.9761,3.9778,3.9813,3.9878,3.9851,3.9913,3.9909,3.9972,3.9972,4.0071,4.0087,4.0093,4.0092,4.0095,4.0095,4.0118,4.0108,4.0087,4.0085,4.0084,4.0083,0,3.9578,3.9584,3.9692,3.9729,3.974,3.9813,3.9845,3.9904,3.9913,3.9996,4.0015,4.003,4.0103,4.0107,4.0191,4.0191,4.0312,4.0299,4.0297,4.0295,4.0373,4.0365,4.0624,4.0657,4.0434,4.0436,4.0438,0,3.969,3.9758,3.9803,3.9844,3.9869,3.9937,3.9978,3.9973,4.0017,4.0071,4.0124,4.0195,4.025,4.0368,4.0387,4.0451,4.044,4.0526,4.0449,4.0451,4.0441,4.0437,4.0444,4.0541,4.0543,4.0545,4.0547,0,3.9887,3.9886,3.9946,4.0008,4.0057,4.0106,4.0151,4.0186,4.0187,4.0238,4.0312,4.0355,4.0441,4.0511,4.0574,4.0597,4.0573,4.0571,4.0592,4.0596,4.0592,4.0596,4.0338,4.0565,4.0563,4.0562,4.0561,4.056,4.0029,4.0088,4.0129,4.0197,4.023,4.0273,4.033,4.0347,4.0408,4.0478,4.0471,4.0553,4.0595,4.0677,4.0706,4.077,4.0741,4.0772,4.078,4.0787,4.0795,4.0583,4.0782,4.0781,4.0781,4.078,4.078,0,4.0224,4.0248,4.0311,4.0375,4.0428,4.0401,4.0449,4.0496,4.0568,4.0609,4.0665,4.075,4.0818,4.0843,4.0909,4.0956,4.0946,4.0973,4.097,4.0976,4.0818,4.0793,4.098,4.098,4.098,4.098,4.098,4.098,4.0332,4.0431,4.0436,4.0552,4.0576,4.0656,4.0686,4.0726,4.0758,4.0855,4.0911,4.0926,4.0961,4.103,4.1091,4.1096,4.1122,4.1154,4.1155,4.1007,4.0987,4.0967,4.0944,4.116,4.116,4.1307,4.1308,4.1309]},{"header":{"parameterUnit":"m.s-1","parameterCategory":1,"la1":30.2991,"la2":30.254,"lo1":-89.0895,"lo2":-89.0444,"dy":0.0017,"dx":0.0017,"nx":28,"ny":28,"refTime":"2024-04-11T09:00:00:Z","depth":0,"parameterNumber":3,"parameterNumberName":"V-component_of_WINDS"},"data":[0,0,0,0,0,0,0,0,0,0,0,0,0,0,0,0,0,0,0,0,0,0,0,0,0,0,0,0,0,0,0,0,0,0,0,0,0,0,0,0,0,0,0,0,0,0,0,0,0,0,0,0,0,0,0,0,0,0,-3.2207,-3.2209,0,-3.236,-3.2361,-3.2363,-3.2329,-3.2326,-3.2324,-3.2321,-3.2481,-3.2487,-3.2494,0,0,0,0,0,0,0,0,0,0,0,0,0,-3.1891,-3.1897,-3.2207,-3.2209,-3.2211,-3.2359,-3.2361,-3.2364,-3.233,-3.2326,-3.2323,-3.2319,-3.2478,-3.2486,-3.2495,0,0,0,0,0,0,0,0,0,0,0,0,0,-3.2035,-3.1899,-3.2207,-3.2212,-3.2214,-3.2359,-3.2362,-3.2364,-3.2331,-3.2326,-3.2322,-3.2318,-3.2476,-3.2486,-3.2496,-3.2647,0,0,-3.2528,-3.2532,0,0,0,0,0,0,0,0,-3.2027,-3.2046,-3.2209,-3.2212,-3.2214,-3.2321,-3.2309,-3.2459,-3.2332,-3.2286,-3.2321,-3.2316,-3.2431,-3.2445,-3.2483,-3.2654,-3.2661,-3.2529,-3.2535,-3.2539,-3.2542,0,0,0,0,0,0,0,-3.2017,-3.204,-3.2268,-3.2212,-3.2215,-3.2208,-3.2224,-3.2337,-3.2381,-3.229,-3.2288,-3.2306,-3.2432,-3.2473,-3.2487,-3.2663,-3.2528,-3.2538,-3.2544,-3.2548,-3.2968,-3.2972,0,0,0,0,0,0,-3.2004,-3.2032,-3.2263,-3.2272,-3.2108,-3.2217,-3.2235,-3.2291,-3.238,-3.2389,-3.231,-3.2304,-3.2458,-3.2475,-3.2492,-3.2676,-3.2539,-3.2549,-3.2555,-3.2963,-3.2969,-3.2974,0,0,0,0,0,0,-3.1997,-3.2025,-3.2257,-3.2151,-3.218,-3.2227,-3.2291,-3.2296,-3.2338,-3.2395,-3.2403,-3.2344,-3.2455,-3.2477,-3.2609,-3.2681,-3.2554,-3.2563,-3.2957,-3.2965,-3.2971,-3.3043,0,0,0,0,0,0,-3.1988,-3.2023,-3.2079,-3.2153,-3.2186,-3.2369,-3.2295,-3.2303,-3.2355,-3.2349,-3.2429,-3.2438,-3.2453,-3.2593,-3.2619,-3.2693,-3.2571,-3.2951,-3.296,-3.2969,-3.3035,-3.3052,-3.3067,0,0,0,0,0,-3.1977,-3.2094,-3.2082,-3.211,-3.2258,-3.2374,-3.2393,-3.2407,-3.2361,-3.2419,-3.2456,-3.2435,-3.2669,-3.2607,-3.2636,-3.2714,-3.2946,-3.2958,-3.2968,-3.3027,-3.3049,-3.3067,0,0,0,0,0,0,-3.2029,-3.2104,-3.2092,-3.2235,-3.2298,-3.2367,-3.2441,-3.2429,-3.2507,-3.2498,-3.2514,-3.2532,-3.2666,-3.2703,-3.2633,-3.2865,-3.2801,-3.2818,-3.2836,-3.2857,-3.2873,-3.2862,-3.258,0,0,0,0,0,-3.2056,-3.2143,-3.2204,-3.2325,-3.2357,-3.2394,-3.2445,-3.2451,-3.2517,-3.2544,-3.259,-3.2657,-3.2745,-3.2803,-3.2887,-3.304,-3.3058,-3.3108,-3.3124,-3.3137,-3.3152,-3.3238,-3.3261,-3.301,-3.301,-3.301,0,0,-3.2115,-3.2167,-3.2221,-3.2337,-3.2386,-3.2477,-3.2417,-3.2515,-3.2583,-3.2559,-3.2686,-3.2722,-3.2798,-3.2941,-3.3006,-3.2976,-3.3225,-3.3151,-3.3161,-3.3169,-3.3251,-3.3275,-3.3296,-3.3018,-3.3016,-3.3015,0,0,-3.2269,-3.2316,-3.2422,-3.2473,-3.2549,-3.2572,-3.2598,-3.267,-3.2693,-3.282,-3.2805,-3.2887,-3.3038,-3.3093,-3.3141,-3.3317,-3.3301,-3.3344,-3.3429,-3.3512,-3.3532,-3.355,-3.3614,-3.3637,-3.3359,-3.3359,-3.3359,0,-3.2333,-3.2468,-3.2479,-3.258,-3.2632,-3.2613,-3.2723,-3.2772,-3.2872,-3.2909,-3.2873,-3.3064,-3.3113,-3.327,-3.3313,-3.3351,-3.3383,-3.3335,-3.3528,-3.3546,-3.3563,-3.3624,-3.3648,-3.3364,-3.3363,-3.3363,-3.3362,0,-3.2543,-3.2637,-3.2715,-3.2811,-3.2872,-3.2976,-3.3005,-3.3066,-3.3067,-3.3095,-3.3226,-3.3284,-3.3381,-3.3418,-3.342,-3.3576,-3.3555,-3.3524,-3.346,-3.3591,-3.3649,-3.3673,-3.337,-3.3369,-3.3367,-3.3366,0,0,-3.2733,-3.2835,-3.2863,-3.2907,-3.299,-3.3063,-3.3168,-3.3261,-3.3314,-3.3384,-3.3473,-3.3602,-3.3574,-3.3629,-3.3637,-3.3709,-3.3848,-3.3669,-3.3671,-3.3702,-3.4025,-3.4049,-3.4076,-3.3837,-3.3842,-3.3845,-3.4019,0,-3.2896,-3.3078,-3.3092,-3.3257,-3.3346,-3.333,-3.3421,-3.3483,-3.3512,-3.3593,-3.3626,-3.3718,-3.3673,-3.3706,-3.3777,-3.3815,-3.3913,-3.3803,-3.3922,-3.3927,-3.3905,-3.4107,-3.4132,-3.4294,-3.4042,-3.4046,-3.4049,0,-3.3109,-3.3184,-3.3358,-3.343,-3.3467,-3.3549,-3.3637,-3.3713,-3.3784,-3.38,-3.3862,-3.386,-3.3969,-3.3901,-3.4053,-3.3978,-3.4028,-3.4055,-3.4061,-3.4074,-3.3996,-3.4126,-3.4345,-3.437,-3.4085,-3.4082,-3.4079,0,-3.3232,-3.3377,-3.3501,-3.3539,-3.3625,-3.3683,-3.3722,-3.3787,-3.3843,-3.3921,-3.3958,-3.4047,-3.4097,-3.4167,-3.419,-3.4138,-3.4343,-3.4275,-3.4361,-3.4361,-3.4406,-3.4403,-3.4637,-3.4436,-3.4435,-3.4435,-3.4434,0,-3.3412,-3.352,-3.3557,-3.3633,-3.3754,-3.377,-3.3889,-3.3925,-3.3984,-3.4068,-3.406,-3.414,-3.4165,-3.425,-3.4269,-3.4393,-3.4415,-3.4433,-3.4438,-3.4435,-3.4433,-3.4469,-3.4459,-3.4441,-3.444,-3.4439,-3.4437,0,-3.357,-3.3599,-3.3733,-3.3804,-3.3824,-3.391,-3.3971,-3.4046,-3.4074,-3.4181,-3.4207,-3.4252,-3.4351,-3.4381,-3.4501,-3.4514,-3.466,-3.4653,-3.4636,-3.4637,-3.4722,-3.4714,-3.4988,-3.5026,-3.4798,-3.48,-3.4802,0,-3.3684,-3.3766,-3.3846,-3.3901,-3.3942,-3.4031,-3.4088,-3.4108,-3.4168,-3.4255,-3.4319,-3.4417,-3.4496,-3.4656,-3.4701,-3.4793,-3.4789,-3.4879,-3.4803,-3.4799,-3.4793,-3.4788,-3.4798,-3.4894,-3.4896,-3.4898,-3.49,0,-3.3884,-3.3894,-3.3976,-3.4064,-3.4132,-3.4202,-3.427,-3.4316,-3.4345,-3.4414,-3.4514,-3.4576,-3.4698,-3.4797,-3.489,-3.4932,-3.4923,-3.4923,-3.4948,-3.4947,-3.4935,-3.4945,-3.4677,-3.4917,-3.4915,-3.4914,-3.4913,-3.4912,-3.4024,-3.4097,-3.4165,-3.4257,-3.4309,-3.4373,-3.4447,-3.4484,-3.4568,-3.4669,-3.4675,-3.4785,-3.4856,-3.498,-3.5027,-3.5115,-3.5089,-3.5125,-3.5134,-3.5143,-3.5151,-3.4919,-3.5132,-3.5131,-3.5131,-3.5131,-3.513,0,-3.4224,-3.4267,-3.4352,-3.4446,-3.4519,-3.4502,-3.4576,-3.4639,-3.4736,-3.4801,-3.4879,-3.4997,-3.5092,-3.5145,-3.524,-3.5301,-3.5299,-3.5325,-3.5322,-3.5332,-3.5168,-3.5137,-3.5325,-3.5325,-3.5325,-3.5325,-3.5325,-3.5325,-3.4337,-3.4461,-3.4479,-3.463,-3.4672,-3.4779,-3.4823,-3.4883,-3.4935,-3.5066,-3.5145,-3.5178,-3.5239,-3.534,-3.5428,-3.5441,-3.5477,-3.5507,-3.5518,-3.5363,-3.5343,-3.5324,-3.5296,-3.5514,-3.5515,-3.5675,-3.5677,-3.5678]}]]